[[{"header":{"parameterUnit":"m.s-1","parameterCategory":1,"la1":30.2991,"la2":30.254,"lo1":-89.0895,"lo2":-89.0444,"dy":0.0017,"dx":0.0017,"nx":28,"ny":28,"refTime":"2024-05-20T09:00:00:Z","depth":0,"parameterNumber":2,"parameterNumberName":"U-component_of_WINDS"},"data":[0,0,0,0,0,0,0,0,0,0,0,0,0,0,0,0,0,0,0,0,0,0,0,0,0,0,0,0,0,0,0,0,0,0,0,0,0,0,0,0,0,0,0,0,0,0,0,0,0,0,0,0,0,0,0,0,0,0,-2.5494,-2.5494,0,-2.5552,-2.5552,-2.5553,-2.5536,-2.5535,-2.5534,-2.5533,-2.559,-2.5592,-2.5595,0,0,0,0,0,0,0,0,0,0,0,0,0,-2.5366,-2.5369,-2.5494,-2.5494,-2.5495,-2.5552,-2.5552,-2.5553,-2.5536,-2.5535,-2.5534,-2.5532,-2.5589,-2.5592,-2.5595,0,0,0,0,0,0,0,0,0,0,0,0,0,-2.5423,-2.5369,-2.5493,-2.5494,-2.5494,-2.5552,-2.5552,-2.5553,-2.5537,-2.5535,-2.5533,-2.5531,-2.5588,-2.5592,-2.5596,-2.5656,0,0,-2.5608,-2.561,0,0,0,0,0,0,0,0,-2.5419,-2.5427,-2.5493,-2.5494,-2.5494,-2.5535,-2.5529,-2.5588,-2.5537,-2.552,-2.5533,-2.5531,-2.5573,-2.5578,-2.5593,-2.5659,-2.5661,-2.5608,-2.5611,-2.5612,-2.5613,0,0,0,0,0,0,0,-2.5416,-2.5425,-2.5516,-2.5494,-2.5495,-2.549,-2.5496,-2.554,-2.5556,-2.5522,-2.5521,-2.5528,-2.5573,-2.5589,-2.5594,-2.5662,-2.5608,-2.5612,-2.5614,-2.5616,-2.578,-2.5782,0,0,0,0,0,0,-2.5411,-2.5422,-2.5515,-2.5518,-2.5452,-2.5494,-2.5501,-2.5524,-2.5555,-2.5559,-2.5529,-2.5527,-2.5583,-2.5589,-2.5596,-2.5668,-2.5612,-2.5616,-2.5618,-2.5778,-2.578,-2.5783,0,0,0,0,0,0,-2.5409,-2.542,-2.5512,-2.547,-2.5481,-2.5498,-2.5524,-2.5526,-2.5542,-2.5561,-2.5564,-2.5543,-2.5582,-2.559,-2.5641,-2.567,-2.5618,-2.5621,-2.5776,-2.5779,-2.5781,-2.5813,0,0,0,0,0,0,-2.5405,-2.5419,-2.5442,-2.547,-2.5483,-2.5557,-2.5526,-2.5528,-2.5549,-2.5546,-2.5575,-2.5577,-2.5581,-2.5635,-2.5645,-2.5674,-2.5624,-2.5773,-2.5777,-2.578,-2.581,-2.5817,-2.5823,0,0,0,0,0,-2.5401,-2.5448,-2.5444,-2.5455,-2.5513,-2.5559,-2.5566,-2.557,-2.5551,-2.5575,-2.5587,-2.5577,-2.5666,-2.5641,-2.5652,-2.5683,-2.5771,-2.5776,-2.578,-2.5807,-2.5816,-2.5823,0,0,0,0,0,0,-2.5422,-2.5452,-2.5447,-2.5506,-2.553,-2.5556,-2.5586,-2.558,-2.5609,-2.5606,-2.5609,-2.5615,-2.5667,-2.568,-2.5652,-2.5742,-2.5715,-2.5722,-2.5732,-2.5741,-2.5747,-2.5743,-2.5628,0,0,0,0,0,-2.5434,-2.547,-2.5493,-2.5543,-2.5555,-2.5569,-2.5589,-2.559,-2.5615,-2.5625,-2.5641,-2.5665,-2.5699,-2.572,-2.5752,-2.5812,-2.5818,-2.5839,-2.5845,-2.5851,-2.5856,-2.5889,-2.5898,-2.5797,-2.5797,-2.5797,0,0,-2.5458,-2.5479,-2.5501,-2.5548,-2.5567,-2.5603,-2.5577,-2.5616,-2.5643,-2.563,-2.568,-2.5693,-2.572,-2.5776,-2.5801,-2.5788,-2.5886,-2.5857,-2.5861,-2.5863,-2.5894,-2.5904,-2.5912,-2.58,-2.58,-2.5799,0,0,-2.5521,-2.5541,-2.5584,-2.5604,-2.5633,-2.5642,-2.5652,-2.568,-2.5688,-2.5738,-2.5729,-2.5761,-2.5818,-2.5838,-2.5856,-2.5927,-2.5918,-2.5937,-2.5972,-2.6004,-2.6012,-2.6019,-2.6044,-2.6053,-2.5943,-2.5943,-2.5943,0,-2.5547,-2.5602,-2.5607,-2.5647,-2.5667,-2.5659,-2.5703,-2.5721,-2.576,-2.5774,-2.5759,-2.5831,-2.5849,-2.5909,-2.5927,-2.5941,-2.5953,-2.5933,-2.601,-2.6017,-2.6024,-2.6048,-2.6057,-2.5945,-2.5945,-2.5945,-2.5944,0,-2.5632,-2.5671,-2.5702,-2.574,-2.5764,-2.5806,-2.5816,-2.584,-2.584,-2.585,-2.59,-2.5921,-2.5957,-2.5972,-2.5971,-2.6032,-2.6023,-2.6009,-2.5982,-2.6036,-2.6058,-2.6067,-2.5948,-2.5947,-2.5947,-2.5946,0,0,-2.5709,-2.575,-2.5762,-2.5779,-2.5812,-2.5841,-2.5882,-2.5918,-2.5938,-2.5965,-2.5999,-2.6049,-2.6037,-2.6057,-2.6058,-2.6086,-2.6141,-2.6069,-2.607,-2.6081,-2.6209,-2.6218,-2.6229,-2.6136,-2.6137,-2.6139,-2.6206,0,-2.5774,-2.5848,-2.5854,-2.5919,-2.5954,-2.5947,-2.5983,-2.6007,-2.6018,-2.6048,-2.606,-2.6095,-2.6076,-2.6088,-2.6116,-2.6128,-2.6166,-2.6124,-2.6167,-2.6168,-2.6159,-2.6241,-2.6251,-2.6313,-2.6215,-2.6217,-2.6218,0,-2.586,-2.589,-2.596,-2.5988,-2.6003,-2.6035,-2.6069,-2.6099,-2.6125,-2.6131,-2.6154,-2.6152,-2.6194,-2.6166,-2.6223,-2.6194,-2.6212,-2.6221,-2.6224,-2.6227,-2.6195,-2.6246,-2.6334,-2.6343,-2.6232,-2.623,-2.6229,0,-2.5909,-2.5967,-2.6016,-2.6031,-2.6065,-2.6088,-2.6103,-2.6128,-2.6149,-2.6179,-2.6193,-2.6226,-2.6244,-2.627,-2.6277,-2.6256,-2.6334,-2.6307,-2.634,-2.6339,-2.6356,-2.6354,-2.6447,-2.6368,-2.6368,-2.6368,-2.6368,0,-2.598,-2.6023,-2.6039,-2.6069,-2.6116,-2.6123,-2.6169,-2.6183,-2.6205,-2.6237,-2.6233,-2.6264,-2.6271,-2.6303,-2.6308,-2.6355,-2.6363,-2.6369,-2.6369,-2.6369,-2.6368,-2.638,-2.6375,-2.6371,-2.637,-2.637,-2.6369,0,-2.6042,-2.6055,-2.6108,-2.6136,-2.6144,-2.6178,-2.6202,-2.623,-2.6241,-2.6282,-2.6292,-2.6308,-2.6345,-2.6355,-2.6399,-2.6402,-2.6457,-2.6454,-2.6448,-2.6448,-2.648,-2.6477,-2.6583,-2.6597,-2.651,-2.6511,-2.6511,0,-2.6087,-2.612,-2.6152,-2.6174,-2.619,-2.6225,-2.6247,-2.6255,-2.6278,-2.6311,-2.6336,-2.6372,-2.6402,-2.6461,-2.6476,-2.651,-2.6507,-2.6542,-2.6512,-2.6511,-2.6507,-2.6505,-2.6508,-2.6548,-2.6549,-2.655,-2.655,0,-2.6165,-2.617,-2.6202,-2.6237,-2.6264,-2.6291,-2.6318,-2.6336,-2.6347,-2.6373,-2.6411,-2.6434,-2.648,-2.6516,-2.655,-2.6565,-2.6559,-2.656,-2.6569,-2.6568,-2.6563,-2.6566,-2.6463,-2.6557,-2.6556,-2.6556,-2.6555,-2.6555,-2.6219,-2.6248,-2.6275,-2.6312,-2.6333,-2.6358,-2.6386,-2.6401,-2.6433,-2.6471,-2.6474,-2.6515,-2.6541,-2.6586,-2.6603,-2.6635,-2.6624,-2.6638,-2.6641,-2.6644,-2.6647,-2.6559,-2.6641,-2.6641,-2.6641,-2.6641,-2.664,0,-2.6297,-2.6314,-2.6348,-2.6385,-2.6414,-2.6407,-2.6436,-2.646,-2.6497,-2.6522,-2.6552,-2.6596,-2.6631,-2.6649,-2.6684,-2.6706,-2.6705,-2.6715,-2.6713,-2.6717,-2.6654,-2.6643,-2.6716,-2.6716,-2.6716,-2.6716,-2.6716,-2.6716,-2.634,-2.6389,-2.6397,-2.6456,-2.6472,-2.6514,-2.6531,-2.6554,-2.6574,-2.6623,-2.6653,-2.6665,-2.6687,-2.6724,-2.6756,-2.676,-2.6773,-2.6785,-2.6788,-2.6729,-2.6721,-2.6714,-2.6703,-2.6788,-2.6788,-2.6847,-2.6848,-2.6848]},{"header":{"parameterUnit":"m.s-1","parameterCategory":1,"la1":30.2991,"la2":30.254,"lo1":-89.0895,"lo2":-89.0444,"dy":0.0017,"dx":0.0017,"nx":28,"ny":28,"refTime":"2024-05-20T09:00:00:Z","depth":0,"parameterNumber":3,"parameterNumberName":"V-component_of_WINDS"},"data":[0,0,0,0,0,0,0,0,0,0,0,0,0,0,0,0,0,0,0,0,0,0,0,0,0,0,0,0,0,0,0,0,0,0,0,0,0,0,0,0,0,0,0,0,0,0,0,0,0,0,0,0,0,0,0,0,0,0,3.8681,3.8682,0,3.8739,3.874,3.874,3.8701,3.87,3.8698,3.8696,3.8751,3.8754,3.8758,0,0,0,0,0,0,0,0,0,0,0,0,0,3.8534,3.8537,3.8681,3.8682,3.8683,3.8739,3.874,3.8741,3.8702,3.87,3.8697,3.8695,3.875,3.8754,3.8758,0,0,0,0,0,0,0,0,0,0,0,0,0,3.8595,3.8538,3.8681,3.867,3.867,3.8739,3.874,3.8741,3.8702,3.8699,3.8697,3.8694,3.8749,3.8754,3.8758,3.884,0,0,3.8773,3.8775,0,0,0,0,0,0,0,0,3.8592,3.8601,3.8671,3.8671,3.8671,3.871,3.8708,3.8774,3.8703,3.869,3.8696,3.8693,3.874,3.8745,3.8761,3.8843,3.8845,3.8773,3.8776,3.8778,3.8779,0,0,0,0,0,0,0,3.8588,3.8598,3.8704,3.8672,3.8672,3.8661,3.8667,3.872,3.8729,3.8691,3.8688,3.8696,3.8739,3.8757,3.8762,3.8846,3.8773,3.8777,3.878,3.8782,3.8999,3.9001,0,0,0,0,0,0,3.8585,3.8595,3.8702,3.8706,3.8624,3.8666,3.8673,3.87,3.8728,3.873,3.8698,3.8694,3.875,3.8757,3.8764,3.8863,3.8778,3.8782,3.8785,3.8996,3.8999,3.9002,0,0,0,0,0,0,3.8582,3.8595,3.87,3.865,3.8662,3.8671,3.8703,3.8703,3.8721,3.8734,3.8734,3.8715,3.8749,3.8758,3.8822,3.8864,3.8784,3.8789,3.8992,3.8997,3.9001,3.906,0,0,0,0,0,0,3.8578,3.8594,3.8626,3.8651,3.8665,3.8758,3.8705,3.8706,3.8729,3.8724,3.875,3.8751,3.8747,3.8816,3.8827,3.8869,3.8792,3.8988,3.8994,3.8999,3.9055,3.9066,3.9076,0,0,0,0,0,3.8573,3.8639,3.8627,3.8641,3.8705,3.876,3.8768,3.8763,3.8733,3.8765,3.8773,3.8751,3.8858,3.8822,3.8835,3.8879,3.8986,3.8993,3.8999,3.905,3.9064,3.9076,0,0,0,0,0,0,3.8617,3.8642,3.8629,3.8706,3.8732,3.8754,3.8793,3.8778,3.8812,3.8805,3.8796,3.8803,3.887,3.8881,3.8841,3.8961,3.8917,3.8926,3.8951,3.8965,3.8975,3.8971,3.8796,0,0,0,0,0,3.8636,3.868,3.8699,3.8764,3.8778,3.8784,3.8807,3.8802,3.8827,3.8837,3.885,3.8875,3.8914,3.894,3.8976,3.9056,3.9061,3.9093,3.9103,3.9112,3.912,3.9164,3.9179,3.9024,3.9024,3.9024,0,0,3.8675,3.8694,3.8722,3.8774,3.8793,3.8838,3.8793,3.8842,3.8875,3.8844,3.8906,3.8917,3.8944,3.9017,3.9049,3.9027,3.9164,3.9121,3.9128,3.9131,3.9173,3.9187,3.92,3.9029,3.9028,3.9027,0,0,3.8769,3.8788,3.8845,3.8866,3.8896,3.89,3.8914,3.8939,3.8945,3.9008,3.8986,3.9025,3.9092,3.9113,3.9132,3.9236,3.9217,3.9248,3.9304,3.9347,3.9359,3.937,3.9407,3.9421,3.9256,3.9256,3.9256,0,3.8813,3.8881,3.8876,3.8928,3.8951,3.8928,3.8985,3.9005,3.9045,3.9062,3.9037,3.9123,3.9139,3.9217,3.9243,3.9259,3.9274,3.9245,3.9358,3.9369,3.9378,3.9414,3.9428,3.926,3.926,3.9259,3.9259,0,3.8934,3.8982,3.9024,3.9066,3.9094,3.9148,3.9151,3.918,3.9173,3.9179,3.9243,3.9262,3.9303,3.9321,3.9313,3.9398,3.9384,3.9359,3.9315,3.9397,3.9431,3.9444,3.9265,3.9264,3.9263,3.9262,0,0,3.9056,3.9096,3.9112,3.9131,3.9164,3.92,3.9253,3.9295,3.932,3.9349,3.9393,3.9452,3.943,3.9452,3.9446,3.9483,3.9566,3.9454,3.9454,3.9474,3.9661,3.968,3.9696,3.9553,3.9556,3.9558,3.9659,0,3.9153,3.9248,3.9246,3.9333,3.9377,3.9356,3.9403,3.9427,3.9435,3.9473,3.948,3.9522,3.9489,3.9503,3.9539,3.9548,3.9603,3.9541,3.9594,3.9596,3.9588,3.9714,3.9734,3.9828,3.9672,3.9675,3.9676,0,3.9278,3.9313,3.9406,3.9433,3.9452,3.9494,3.9532,3.9569,3.9596,3.9599,3.9625,3.9614,3.9667,3.9622,3.9696,3.9654,3.9675,3.9683,3.9687,3.9692,3.9641,3.9722,3.9858,3.9873,3.9697,3.9695,3.9694,0,3.9359,3.9429,3.9494,3.9511,3.9544,3.9575,3.959,3.9615,3.964,3.9674,3.969,3.9729,3.975,3.978,3.9779,3.9747,3.9855,3.9809,3.9858,3.9858,3.9882,3.988,4.0024,3.9895,3.9895,3.9895,3.9895,0,3.9467,3.9524,3.9531,3.9571,3.9635,3.9632,3.9695,3.9707,3.973,3.9771,3.9755,3.9794,3.979,3.983,3.9829,3.9891,3.99,3.9904,3.9903,3.9906,3.9905,3.992,3.9913,3.9899,3.9898,3.9897,3.9896,0,3.9567,3.9574,3.9644,3.9671,3.9679,3.9725,3.9747,3.9785,3.9792,3.9845,3.9857,3.9867,3.9912,3.9915,3.9967,3.9966,4.0042,4.0033,4.0033,4.0032,4.0081,4.0076,4.0239,4.026,4.0118,4.0119,4.012,0,3.9636,3.968,3.9713,3.974,3.9758,3.9802,3.9829,3.9828,3.9856,3.9892,3.9925,3.997,4.0005,4.0079,4.009,4.013,4.0123,4.0177,4.0128,4.013,4.0124,4.0122,4.0126,4.0186,4.0188,4.0189,4.019,0,3.9757,3.9759,3.9799,3.9841,3.9874,3.9907,3.9937,3.996,3.9962,3.9995,4.0043,4.007,4.0125,4.0169,4.0208,4.0222,4.0207,4.0205,4.0219,4.0222,4.022,4.0223,4.0059,4.0201,4.02,4.0199,4.0199,4.0198,3.9845,3.9883,3.9913,3.9959,3.9982,4.0011,4.0048,4.0061,4.0101,4.0146,4.0142,4.0195,4.0222,4.0274,4.0291,4.0332,4.0313,4.0333,4.0338,4.0343,4.0348,4.0214,4.0339,4.0339,4.0338,4.0338,4.0338,0,3.9965,3.9984,4.0026,4.007,4.0106,4.009,4.0123,4.0154,4.0201,4.0228,4.0264,4.0319,4.0363,4.0378,4.042,4.045,4.0444,4.0461,4.0459,4.0463,4.0362,4.0347,4.0465,4.0465,4.0465,4.0465,4.0465,4.0465,4.0033,4.0098,4.0104,4.0181,4.0198,4.0251,4.0272,4.0298,4.032,4.0383,4.042,4.043,4.0453,4.0497,4.0536,4.0539,4.0556,4.0576,4.0577,4.0482,4.047,4.0457,4.0443,4.058,4.058,4.0674,4.0674,4.0675]}]]